Theta_e
345 343 346 352 355 355 354 357 361 362 362 356 354 360 362 366 366 365 368 367 368 366 363 362 361 362 365 361 355 352 350 353 356 350 351 358 354 352 355 353 356 355 357 355 351 353 355 354 352 351 353 356 357 358 358 358 357 357 357 356 356 355 353 351 348 342 335 334 336 338 340 342 339 335 332 331 335 347 354 355 355 355 354 352 353 354 351 349 348 350 350 348 348 350 350 350 351
348 350 353 356 356 356 358 359 363 360 360 355 354 361 362 366 365 366 367 363 366 364 363 362 362 363 368 365 353 353 353 352 356 356 355 354 352 354 355 355 355 355 357 356 354 356 357 356 351 351 355 356 357 358 358 357 357 357 356 355 355 354 351 347 342 337 334 334 337 341 345 348 349 347 343 337 332 338 350 354 355 354 355 353 353 354 351 350 348 348 349 347 349 351 351 352 352
353 355 355 355 356 356 359 361 359 355 357 352 350 363 365 365 366 367 366 362 364 362 361 360 362 363 365 362 355 355 353 350 353 353 352 352 355 355 354 355 354 355 356 356 357 359 358 356 351 353 356 356 358 358 358 357 358 357 355 355 354 351 348 344 340 337 334 336 341 344 348 351 354 354 353 350 340 334 343 352 355 354 355 354 353 354 351 350 347 347 348 348 350 350 351 353 353
355 354 353 356 360 358 361 363 362 356 353 346 348 365 367 365 366 366 365 362 363 360 360 360 363 362 362 363 360 354 350 351 352 352 352 353 355 355 354 354 354 355 355 357 358 358 358 356 353 354 356 357 357 358 358 357 357 356 356 355 353 348 344 342 341 339 335 339 343 347 351 353 354 353 354 355 351 340 337 348 354 354 354 354 354 354 352 349 347 346 348 349 351 351 351 353 353
356 355 353 355 362 361 362 366 367 359 353 350 353 364 366 364 366 365 364 362 362 360 360 362 363 361 361 364 362 356 351 350 351 352 353 354 355 354 354 354 354 353 353 356 357 359 358 354 354 355 356 357 357 358 358 357 356 356 355 353 350 344 340 340 342 339 337 340 343 349 352 354 354 353 354 354 356 346 334 345 352 353 354 354 354 354 353 350 347 347 348 350 351 351 351 352 352
356 356 355 355 359 361 363 362 361 359 361 364 361 365 366 364 365 364 362 362 361 360 360 362 363 363 363 363 361 357 355 351 350 352 352 355 355 355 356 354 353 351 352 353 357 360 356 353 355 355 356 357 357 357 357 357 356 355 355 352 348 343 339 338 336 335 337 340 343 350 352 353 353 353 355 353 355 345 335 347 352 353 353 350 352 354 354 351 348 348 349 350 351 350 350 350 350
355 357 359 359 361 361 365 360 355 360 365 367 365 365 366 364 363 364 362 361 362 359 361 362 361 364 365 363 360 358 358 352 349 354 353 354 355 356 356 355 353 351 351 354 359 359 353 353 356 356 357 357 357 356 355 356 355 355 354 351 347 344 339 336 336 335 338 341 344 348 351 353 353 353 354 354 354 344 342 352 353 352 349 345 351 355 355 351 348 348 350 351 350 350 349 348 348
355 357 360 363 366 365 365 362 359 364 365 364 366 364 365 364 362 363 363 363 362 361 362 362 359 364 364 362 361 360 357 350 350 355 353 353 354 355 355 354 353 351 354 358 361 359 353 353 357 358 357 356 356 356 355 355 355 355 353 350 347 344 339 336 335 334 335 338 342 345 349 352 353 354 354 355 351 342 348 355 352 351 347 347 351 353 355 352 348 347 350 351 351 350 348 348 347
356 358 362 365 369 365 360 361 362 366 367 365 365 364 364 364 362 362 363 363 361 361 363 361 358 364 363 362 362 359 356 350 350 354 353 353 354 355 355 354 353 354 357 359 360 359 356 355 357 358 355 354 355 355 355 354 354 354 352 351 348 342 335 331 329 327 328 330 335 340 346 351 353 353 355 355 347 341 352 355 352 352 351 351 350 349 352 351 348 347 350 351 351 351 349 350 349
359 360 364 366 366 358 351 358 364 366 368 365 364 364 364 363 362 362 363 363 361 362 363 360 360 362 363 363 362 358 357 351 350 352 353 353 352 352 354 355 356 357 358 360 360 359 358 357 357 357 353 351 352 354 355 354 354 353 352 351 345 335 328 326 326 325 326 326 330 337 344 350 353 354 355 353 344 343 352 353 350 351 351 349 347 348 349 349 348 348 350 350 351 352 351 351 351
363 362 362 363 360 350 344 355 366 367 367 364 364 364 363 362 362 361 361 362 360 362 362 360 362 362 362 363 362 360 358 349 349 352 352 352 351 352 355 356 358 359 359 360 359 359 358 357 357 356 353 350 350 353 353 353 354 354 351 347 337 328 327 326 325 325 325 327 332 338 345 352 353 353 354 350 343 344 348 347 343 344 345 344 346 348 348 349 349 349 350 349 349 350 350 350 350
365 365 365 364 357 352 350 358 365 367 368 366 366 366 362 361 362 362 361 362 361 363 362 361 362 361 364 363 361 359 358 350 349 352 351 351 351 353 356 356 357 357 358 359 359 358 357 357 357 355 354 351 350 352 351 351 353 351 345 338 330 326 326 326 325 325 326 330 335 341 350 354 352 352 352 348 342 342 343 341 338 340 342 343 345 347 347 347 347 348 348 348 348 349 349 349 349
365 365 367 365 361 360 359 361 366 368 367 367 366 365 362 361 363 360 361 363 363 365 362 359 360 361 364 363 360 360 360 351 350 351 351 351 351 353 354 355 354 355 356 358 359 358 356 356 356 356 355 352 352 352 347 345 347 343 335 330 327 325 326 327 325 325 328 334 339 346 351 352 350 351 351 347 346 346 345 342 341 342 343 344 345 345 347 346 346 347 347 348 348 349 349 349 349
364 366 365 366 365 366 362 361 366 364 362 367 364 363 362 361 362 359 360 363 363 364 361 357 359 362 363 362 360 360 357 349 349 351 351 351 351 351 351 352 353 355 356 356 358 357 356 355 356 356 354 353 352 350 345 340 341 338 334 331 328 327 328 327 325 327 332 339 344 349 350 349 349 351 351 350 351 351 349 345 343 343 343 345 346 346 347 347 348 347 348 348 348 349 348 348 349
363 365 365 366 363 359 358 362 364 361 362 367 363 363 364 361 361 361 362 363 363 361 359 358 359 363 362 362 362 359 352 348 350 350 351 350 348 348 349 349 351 353 353 355 356 356 356 355 356 355 353 354 350 348 347 340 339 339 336 333 330 330 328 325 327 332 338 344 349 351 351 349 350 352 353 352 353 352 350 347 344 343 345 346 347 347 347 347 348 348 348 348 347 348 348 349 348
364 366 367 366 358 350 356 364 363 361 365 367 364 363 364 361 361 362 361 361 362 360 360 361 359 362 360 360 360 356 350 348 349 349 351 350 348 348 346 347 347 349 350 352 354 354 355 354 355 355 352 355 353 351 350 342 336 335 333 331 330 328 326 329 334 340 345 349 352 353 352 352 353 354 354 352 351 351 351 349 345 345 346 347 347 347 347 347 347 347 348 348 348 348 350 352 351
362 367 366 359 355 351 357 364 361 360 367 368 365 364 365 362 360 360 359 360 362 361 361 362 360 361 359 358 357 354 350 347 348 350 351 350 349 348 347 347 346 347 347 349 351 352 352 351 354 355 352 353 353 354 354 348 335 329 330 328 327 328 331 338 344 350 352 353 355 354 354 355 355 354 353 352 350 351 353 349 347 348 348 349 348 346 348 349 348 349 350 350 349 350 352 354 354
364 369 360 352 359 360 360 366 362 364 370 368 366 366 365 364 362 361 361 361 362 362 362 362 361 361 359 358 355 353 349 347 349 351 352 351 349 348 348 347 346 347 346 347 348 347 347 349 352 353 351 350 351 353 356 355 338 324 327 327 330 336 340 348 353 356 357 357 358 356 356 355 353 352 350 350 350 350 350 349 350 352 351 352 352 349 351 352 351 351 352 353 353 353 354 355 356
366 368 357 354 364 364 362 365 362 365 369 367 367 366 363 364 364 362 364 365 362 364 365 364 363 362 360 357 354 352 348 348 350 351 352 351 350 348 348 347 346 347 346 346 345 344 344 346 349 349 349 349 350 349 353 359 344 324 331 340 346 349 351 356 356 358 359 358 358 355 354 352 350 350 348 349 348 347 349 349 352 354 353 353 353 353 353 353 354 353 353 353 353 355 355 355 354
366 364 359 358 360 361 362 365 363 363 366 368 367 365 364 364 363 362 364 365 364 366 365 364 365 364 361 356 353 351 348 349 349 351 353 351 351 349 348 347 347 348 347 347 344 342 343 344 347 345 345 345 347 346 349 358 350 338 349 356 357 358 358 359 357 357 357 356 355 352 351 350 349 349 350 352 350 349 351 353 354 355 355 355 355 355 353 352 354 353 352 352 351 353 354 352 351
362 361 360 358 355 358 362 365 364 361 364 368 367 365 365 363 362 361 363 368 370 369 364 363 363 363 360 355 352 351 348 349 350 351 352 351 351 349 349 348 348 351 350 349 346 344 344 344 345 342 342 343 344 345 346 353 353 351 357 358 358 359 359 357 355 355 355 354 353 351 350 348 347 348 351 351 351 351 352 353 353 354 355 357 357 354 351 351 352 351 350 350 350 350 350 349 348
359 359 359 354 354 357 360 365 364 362 365 367 367 367 364 363 362 360 363 369 371 367 363 361 361 360 358 355 351 350 348 349 350 350 350 350 351 349 350 350 350 351 352 351 349 348 346 344 344 342 341 342 343 344 345 347 350 352 352 353 356 355 353 351 350 349 349 351 352 351 350 349 348 349 352 351 351 351 352 353 351 352 354 354 352 351 350 350 350 351 350 350 349 347 348 349 347
357 359 356 352 354 356 358 364 365 361 366 369 367 367 365 365 362 361 363 365 364 361 360 360 360 359 357 356 351 348 347 347 349 350 350 350 349 349 349 350 350 350 351 351 350 349 346 345 344 342 341 342 344 343 345 345 347 348 348 351 352 349 349 348 347 346 347 349 350 350 350 351 351 350 351 350 351 352 351 351 350 351 352 351 349 350 351 350 350 352 351 349 346 344 346 348 347
357 358 355 351 354 356 356 362 364 362 367 369 367 367 367 367 363 362 364 363 360 359 360 360 359 359 357 354 350 347 346 346 348 348 349 349 348 348 348 348 348 348 349 348 348 347 344 344 343 342 342 342 345 343 344 346 346 346 348 350 348 346 347 346 345 347 348 349 350 350 351 352 351 350 350 349 352 352 351 352 351 350 351 350 349 350 351 351 351 352 350 348 347 346 347 348 347
356 353 352 351 354 356 356 359 361 363 367 366 366 368 368 366 364 362 363 362 361 361 360 360 359 359 357 353 348 346 346 345 347 347 347 347 346 347 346 346 346 346 347 346 345 345 343 344 343 342 342 343 344 343 345 346 345 346 347 348 345 345 345 344 345 347 348 349 351 350 350 352 352 351 350 349 351 350 352 352 350 350 351 350 349 351 350 348 350 350 347 347 347 347 347 346 346
353 351 352 351 353 357 359 361 363 366 365 364 368 370 370 366 363 363 362 361 362 362 360 361 360 358 357 354 350 347 345 345 345 346 345 345 345 344 345 345 344 344 344 344 344 342 342 343 343 342 342 344 343 343 345 345 345 346 346 346 346 347 347 346 346 347 348 348 351 352 350 351 352 352 349 350 351 350 351 352 350 351 351 350 350 351 348 345 348 348 346 347 346 347 348 346 346
350 349 350 351 355 358 360 363 366 367 366 366 368 370 370 366 364 365 363 361 362 363 362 360 360 358 356 355 352 349 346 345 345 345 345 345 344 343 343 344 342 343 342 343 342 340 342 342 342 343 343 344 343 343 346 346 346 346 346 346 346 347 347 347 347 347 349 349 352 353 351 350 352 353 351 351 351 351 351 350 351 351 349 348 349 350 348 346 348 348 348 347 346 347 348 347 347
348 349 350 353 354 358 361 365 367 367 367 366 367 370 370 368 367 367 364 361 362 363 364 361 359 358 356 355 352 350 347 345 345 346 346 345 345 343 343 343 341 342 342 341 341 339 342 341 342 344 342 343 343 343 345 346 347 346 346 347 346 348 347 347 348 348 349 350 353 353 351 351 351 353 353 352 350 351 352 350 350 350 348 348 350 350 347 346 348 349 349 348 347 348 348 348 349
346 347 351 353 353 355 357 365 368 366 367 366 366 365 367 370 369 367 365 362 364 364 364 363 361 358 355 354 351 350 347 345 346 346 346 345 343 342 341 342 341 341 341 341 340 340 342 340 342 344 341 342 344 343 345 346 347 346 346 345 345 348 348 348 348 349 349 349 351 351 351 351 351 353 354 352 350 351 351 350 349 348 348 349 351 351 347 347 348 348 349 349 349 349 349 350 351
346 349 351 354 351 351 356 363 368 369 366 367 365 351 353 368 370 367 365 363 366 365 363 363 363 359 354 354 352 349 346 345 346 345 345 343 341 342 341 341 340 340 341 340 339 340 342 340 342 343 340 342 345 345 344 345 346 346 346 345 345 347 348 347 347 348 348 349 350 349 351 352 351 353 354 352 351 350 350 350 349 347 348 350 352 350 348 347 348 349 349 350 350 350 350 351 351
349 349 349 353 340 341 355 359 366 372 365 370 366 343 346 368 371 368 366 364 366 363 363 364 363 360 356 356 353 350 348 345 345 344 344 342 340 340 340 340 340 340 340 340 340 340 340 341 342 342 341 342 344 347 345 345 347 346 346 346 346 347 347 348 346 347 347 347 349 349 350 352 352 353 353 353 352 350 350 350 351 349 349 350 350 349 347 347 349 349 350 351 351 351 352 352 350
352 341 337 346 336 338 354 353 358 370 365 369 366 345 348 368 369 368 367 364 366 363 363 365 363 363 361 357 355 351 349 346 345 346 343 342 341 339 339 340 339 340 340 340 340 339 339 341 342 342 343 341 342 346 345 346 347 347 347 346 346 347 346 347 346 347 347 346 349 349 349 351 352 352 353 354 353 352 350 349 351 349 348 349 348 348 347 348 350 350 351 354 354 353 353 353 350
350 341 330 336 334 335 348 351 351 360 363 368 363 352 355 366 368 368 367 365 366 363 362 365 364 365 363 360 359 356 352 348 345 346 345 341 342 340 339 340 339 340 340 340 340 340 340 342 341 343 345 342 340 344 345 345 345 346 348 346 347 347 346 347 346 347 348 347 348 349 350 352 352 352 353 354 353 352 350 350 350 347 347 349 347 347 348 348 350 352 354 356 354 352 352 352 348
337 340 333 334 338 336 338 345 349 354 360 365 363 357 357 362 367 368 368 367 366 364 362 364 365 363 363 362 361 358 353 349 347 346 345 343 342 342 341 339 340 339 339 340 340 340 341 340 341 342 343 343 341 343 344 344 344 346 349 347 346 347 346 346 346 346 347 347 348 350 350 350 351 352 352 353 353 352 352 351 350 348 349 349 348 349 349 349 352 354 355 353 352 351 351 350 342
330 332 331 331 338 339 337 339 347 353 352 358 362 359 361 364 367 367 367 367 366 364 362 362 364 362 361 361 362 363 354 349 349 346 345 344 343 343 342 341 340 339 339 339 339 340 342 338 339 341 341 344 343 342 344 344 346 348 349 348 347 348 347 348 348 347 346 346 349 351 348 348 351 351 350 352 353 352 351 350 349 349 350 349 349 349 349 351 353 353 353 352 351 350 349 345 338
338 337 335 330 329 334 341 341 343 347 344 354 361 356 364 369 366 367 366 367 366 363 363 362 362 362 362 362 364 368 361 352 349 348 345 345 344 343 344 343 341 341 340 340 339 340 342 338 339 343 340 342 344 344 344 344 347 348 347 348 347 347 347 349 349 348 347 346 349 350 345 347 351 350 349 351 353 352 350 351 349 349 350 349 349 350 351 353 352 351 352 351 351 351 346 340 337
343 342 337 333 328 328 340 343 340 342 340 347 358 356 364 370 365 367 365 367 367 364 364 362 361 362 363 362 363 366 362 356 352 351 348 346 346 345 345 344 342 342 341 341 341 340 343 341 339 342 343 342 343 344 344 343 347 347 347 348 348 346 346 348 348 347 347 346 348 346 344 349 350 348 350 350 350 351 350 351 350 349 349 348 348 351 353 352 351 351 351 351 352 349 341 336 339
342 338 333 330 329 329 339 342 339 344 338 340 355 354 359 369 365 365 365 367 367 364 363 362 363 362 362 362 362 363 362 359 355 351 350 348 347 346 346 346 343 344 343 343 343 342 343 344 342 342 343 344 343 343 343 344 347 348 347 348 347 346 346 347 347 346 346 348 349 346 346 349 347 348 351 348 348 351 351 350 351 349 350 350 348 351 352 351 352 350 349 352 351 344 337 336 340
339 337 330 324 328 332 336 340 340 341 337 339 352 353 355 367 366 364 366 366 365 363 362 362 362 362 361 362 362 362 361 360 357 351 351 349 348 348 346 348 346 345 345 344 345 344 343 344 345 342 342 344 344 343 343 344 347 348 348 351 351 349 347 346 346 345 346 348 348 345 348 349 347 349 350 349 351 353 350 350 350 349 350 352 349 349 351 351 351 349 350 352 345 339 337 337 340
336 333 325 321 330 329 323 332 341 340 338 338 345 353 359 365 365 366 365 363 366 364 362 362 363 364 362 360 360 360 360 359 359 356 354 350 348 350 348 349 348 347 347 346 346 346 345 345 347 346 344 344 344 344 343 345 348 348 351 355 356 352 349 348 348 347 347 348 346 345 347 347 346 350 349 348 352 352 348 347 349 349 350 352 349 349 351 350 349 349 351 349 340 339 340 338 340
331 333 327 324 330 329 324 332 338 335 337 339 340 341 347 360 364 367 365 362 365 362 360 362 362 361 359 359 359 359 359 359 361 359 357 353 349 351 350 350 350 348 349 349 348 348 347 346 348 349 347 344 344 345 344 345 348 350 353 356 357 354 350 350 349 347 347 347 346 346 347 347 346 348 348 347 351 352 350 348 350 351 351 350 349 350 351 350 349 349 350 345 339 341 340 339 342
325 332 335 332 333 333 332 334 332 324 324 336 339 326 331 353 358 362 365 365 364 360 360 361 359 359 359 360 359 358 360 359 359 360 359 355 352 353 353 352 352 351 351 351 350 349 348 347 348 350 349 346 345 345 345 347 350 351 354 356 356 355 351 349 348 346 345 344 346 347 348 348 346 348 350 349 350 352 351 350 350 352 351 349 350 352 350 350 351 350 346 340 339 341 341 342 343
319 329 336 336 336 334 331 330 325 316 317 335 343 325 324 341 351 361 365 365 367 362 362 361 359 362 362 362 360 358 359 359 358 360 359 356 354 354 353 353 354 353 353 352 350 349 348 348 349 350 349 346 346 345 345 349 352 353 355 354 352 352 350 347 345 344 344 342 345 348 348 347 345 347 351 350 349 349 350 350 349 351 351 349 351 351 350 351 353 353 345 338 341 341 340 343 344
320 330 335 335 334 332 331 329 323 320 323 332 339 329 323 327 342 361 362 359 368 367 365 364 361 360 359 360 362 360 359 359 358 359 358 356 354 353 352 353 354 353 352 351 349 349 349 349 350 350 350 347 345 346 345 350 354 354 354 352 348 348 347 346 344 345 346 347 348 347 347 347 346 348 351 350 349 348 350 352 351 351 352 351 351 351 351 353 354 354 346 338 342 343 341 343 345
326 333 335 333 334 333 333 329 322 324 323 318 326 328 321 322 337 355 357 354 363 367 366 368 364 360 357 358 359 359 359 359 357 358 357 356 357 355 352 353 354 353 352 350 349 350 349 350 351 351 350 348 346 346 347 352 355 354 353 352 349 347 346 345 344 345 347 348 348 346 347 349 349 349 348 348 349 349 350 351 351 352 354 352 350 351 353 353 352 352 346 339 341 344 343 344 344
332 333 335 333 334 333 332 329 321 320 320 314 320 322 319 321 331 342 348 347 355 364 364 364 365 362 360 360 357 356 358 359 357 357 357 356 359 358 353 352 353 352 352 351 349 349 349 351 352 351 351 348 347 347 348 354 356 355 353 352 351 349 347 345 344 345 348 349 348 348 348 349 349 349 349 348 349 350 348 349 349 350 350 350 349 351 352 351 350 348 344 341 341 343 345 343 342
333 333 335 331 332 332 330 329 321 317 316 316 319 319 321 323 327 336 344 346 351 360 362 362 364 363 361 361 358 357 358 359 357 356 357 358 360 359 355 354 353 352 353 352 351 349 349 351 351 351 350 348 348 349 350 353 356 355 353 353 351 349 348 347 345 345 348 350 350 349 346 346 347 349 350 350 351 350 348 348 350 349 348 351 351 352 352 351 348 343 341 343 343 344 345 344 341
331 334 332 323 322 323 322 320 319 317 314 316 320 321 322 320 326 339 349 350 349 355 362 362 362 362 361 359 359 359 359 359 358 356 357 359 359 359 358 355 353 353 353 351 351 350 349 351 351 351 350 348 350 352 352 353 355 355 353 352 352 349 348 348 347 347 348 350 350 348 347 346 347 349 350 350 351 350 349 349 350 350 353 354 354 355 353 350 347 341 340 342 343 344 345 344 342
331 329 322 315 314 315 315 315 316 316 315 317 322 324 323 322 331 344 349 349 349 354 359 360 357 359 360 358 356 357 358 358 358 357 357 358 358 359 358 356 354 354 353 352 352 351 349 350 351 351 350 349 351 353 353 354 354 354 353 353 354 351 350 348 348 348 349 350 349 348 349 349 348 349 348 349 349 348 350 350 348 352 357 354 352 354 351 345 345 342 341 343 343 344 346 344 342
328 322 316 313 313 314 316 316 317 317 316 319 323 324 322 322 333 348 351 348 350 352 355 356 354 355 358 357 354 355 356 356 357 357 356 356 357 358 358 358 356 356 355 352 352 351 350 349 351 352 351 350 351 352 353 354 353 353 352 352 354 353 353 351 349 349 349 349 348 347 348 348 348 347 348 350 348 349 351 350 352 355 356 352 350 354 349 342 340 341 343 343 342 343 345 344 343
329 328 324 316 313 314 314 314 315 317 317 319 322 325 320 319 331 345 349 349 348 348 350 353 352 354 357 355 353 353 354 355 356 358 357 355 357 357 357 357 356 357 356 353 351 352 352 350 349 351 351 351 351 352 353 353 353 352 351 351 352 352 353 352 351 350 349 348 347 346 348 347 346 346 348 351 349 351 352 353 357 358 352 352 354 355 352 344 339 341 343 343 341 342 344 344 343
328 331 325 315 317 318 313 312 314 316 317 319 321 325 327 329 338 341 344 347 348 346 348 351 353 355 356 353 353 353 351 352 355 357 357 356 358 358 356 355 355 356 357 356 355 354 353 351 350 350 352 351 351 352 352 352 352 352 351 351 351 351 351 351 350 350 349 349 347 346 347 347 348 348 350 353 350 351 353 354 359 359 354 356 357 353 350 347 344 344 345 343 342 343 345 346 344
327 325 318 320 328 324 312 311 314 314 315 319 321 324 328 329 335 340 346 348 346 347 349 350 353 355 355 355 354 354 352 353 354 354 355 357 357 356 355 355 354 355 359 358 355 352 351 351 351 351 351 351 352 352 351 351 351 351 351 351 350 351 350 349 349 348 348 348 347 347 347 347 348 349 351 352 349 350 353 353 359 360 357 357 355 351 350 348 345 345 346 345 344 345 345 345 345
325 319 320 327 330 327 318 312 313 315 317 321 320 320 321 320 326 339 349 348 345 347 348 350 352 353 355 355 354 354 355 357 357 353 353 355 355 356 356 355 354 355 359 357 352 350 350 349 351 351 351 352 352 351 351 350 350 350 350 350 350 351 350 349 347 346 345 345 347 347 347 347 347 348 349 350 350 352 352 353 358 360 358 356 354 351 349 346 343 344 345 344 345 347 347 345 345
328 324 329 327 318 317 317 313 313 316 320 322 318 319 321 318 322 335 343 346 346 345 347 349 349 350 352 353 353 355 358 362 361 357 356 354 352 355 356 355 355 355 356 357 353 350 350 350 352 352 352 351 351 352 351 350 350 350 350 350 349 350 350 348 348 346 344 344 346 347 347 347 348 347 348 350 352 353 353 355 358 359 356 355 353 351 349 346 344 344 345 345 347 348 347 346 345
330 328 331 329 320 318 317 316 316 315 320 322 318 322 326 325 330 338 339 343 346 344 348 349 346 349 353 351 351 355 361 363 360 357 357 354 350 353 353 355 357 354 354 357 355 352 352 353 353 352 352 351 351 352 351 351 351 349 349 349 349 349 349 348 346 346 345 344 344 346 347 347 348 347 348 351 352 353 355 357 358 357 356 354 353 351 350 348 347 348 346 345 348 349 347 347 346
324 321 321 322 321 322 321 320 318 319 323 323 321 324 326 331 340 345 342 344 345 346 350 350 348 350 351 352 353 356 360 361 360 359 358 354 350 350 350 353 356 354 353 356 356 356 356 355 353 351 353 352 350 352 352 351 351 349 348 348 348 348 348 348 346 344 346 345 343 345 346 346 347 347 349 351 350 351 355 355 355 357 356 354 353 352 349 347 347 349 343 342 348 349 347 347 346
326 321 320 320 319 318 316 316 318 320 323 321 322 323 324 332 341 344 342 344 344 346 348 348 350 350 348 349 350 354 358 360 360 359 360 360 360 358 354 352 354 355 355 354 355 356 356 356 354 352 354 353 350 352 353 351 351 349 348 347 347 348 347 347 347 345 344 345 344 344 345 345 346 347 349 352 350 350 353 353 353 355 355 354 353 351 350 348 346 345 344 345 349 349 346 346 346
Wind_Speed
10 10 8 6 6 8 6 2 1 1 2 2 2 0 1 2 4 5 4 5 3 3 4 3 3 4 1 4 7 10 10 6 4 3 4 11 25 27 24 28 28 26 26 24 26 24 21 21 19 17 16 17 17 17 17 16 16 14 13 12 11 11 10 11 11 11 9 9 8 8 9 9 8 7 6 5 4 4 4 5 6 6 7 8 8 9 11 12 11 8 6 6 6 5 5 4 4
9 9 6 7 7 7 2 0 2 1 1 2 1 2 1 3 4 5 6 5 2 4 4 4 5 6 2 1 6 10 12 11 12 9 10 24 28 25 28 28 28 27 26 25 25 22 19 20 19 17 17 17 16 16 16 15 15 13 12 11 11 11 10 10 11 10 9 8 7 6 7 8 7 6 7 7 5 4 3 5 6 7 7 8 8 9 11 13 11 9 7 7 7 6 5 4 4
8 8 8 6 5 4 1 1 2 1 1 3 1 2 1 3 3 4 9 6 3 6 6 5 6 5 2 4 8 9 10 12 17 14 14 27 22 23 31 27 28 27 26 25 23 21 19 20 20 18 17 16 16 15 15 15 14 13 11 11 11 10 10 10 10 9 8 7 6 5 6 6 5 5 6 7 7 5 4 5 6 8 8 8 8 8 11 12 10 8 7 7 7 6 6 5 5
7 8 7 4 1 2 1 1 1 2 2 4 0 3 2 3 6 6 8 7 6 6 6 5 4 4 4 8 7 6 10 11 17 16 13 20 21 26 31 28 28 26 26 24 22 22 20 21 21 19 17 16 16 15 14 14 13 12 11 11 10 10 10 10 9 8 7 5 4 5 5 5 4 4 5 6 7 6 5 4 6 8 9 9 8 8 10 11 9 7 6 6 6 6 6 5 5
8 10 7 1 0 1 1 1 1 2 1 3 1 2 1 3 8 8 4 4 6 7 6 4 3 2 4 6 3 4 9 11 16 17 16 20 26 30 29 29 28 26 25 23 23 22 21 22 21 19 18 17 16 15 14 13 13 12 11 10 10 10 10 9 8 7 5 4 4 4 4 4 3 4 4 5 6 7 5 4 6 8 9 9 8 8 10 10 8 7 5 6 6 6 4 4 5
8 8 5 3 1 1 2 2 2 2 1 1 1 2 2 5 8 9 6 2 4 7 5 5 5 4 6 3 2 3 3 8 14 15 20 25 28 29 28 28 26 26 25 23 23 22 23 23 21 20 18 17 16 15 14 13 12 11 10 10 10 10 9 8 7 6 4 4 4 4 3 3 3 4 5 6 6 8 6 5 7 9 10 9 8 8 10 9 8 7 6 5 5 5 5 5 5
3 4 2 2 1 1 3 3 3 3 2 1 2 3 5 7 9 9 8 4 4 4 3 5 7 8 6 2 2 3 4 7 13 15 24 29 30 29 27 26 25 26 25 24 23 23 25 23 21 20 18 17 15 14 14 13 12 11 10 9 10 10 9 8 6 5 4 3 3 3 2 2 3 4 5 6 8 9 6 6 9 10 10 9 8 8 9 9 8 7 6 5 6 6 7 7 6
1 2 0 1 2 0 4 3 3 2 4 4 4 5 6 9 9 8 7 6 5 3 3 5 6 8 4 2 3 2 2 11 16 21 27 31 31 29 26 25 26 26 24 23 23 23 24 23 21 20 19 17 15 14 14 13 12 11 10 9 10 9 8 7 5 4 3 2 2 2 2 2 3 4 6 7 8 9 7 7 9 10 10 9 10 9 8 8 8 7 7 6 7 8 7 7 7
2 2 0 1 2 2 4 2 1 2 5 5 5 6 7 8 9 9 8 8 6 5 4 3 3 6 5 4 4 4 3 14 21 25 27 29 30 29 26 23 25 26 24 23 23 22 22 23 20 19 19 17 16 15 14 14 12 11 10 9 10 9 8 5 4 2 1 0 1 2 2 3 4 5 6 8 9 9 7 8 10 10 11 10 10 9 8 7 7 9 8 8 8 8 8 7 7
1 2 1 1 2 3 3 1 0 2 5 5 7 5 5 8 9 9 9 10 6 5 2 2 4 7 7 6 4 3 1 15 23 25 27 28 28 29 26 22 24 25 24 24 24 23 21 21 20 18 18 17 16 16 15 14 12 11 10 9 9 9 7 4 2 0 1 1 2 4 4 4 4 5 6 8 10 9 8 9 9 9 10 10 9 9 8 7 7 8 9 8 7 8 9 9 9
1 1 2 2 3 3 3 3 1 3 4 6 7 4 5 8 11 9 9 11 5 6 3 0 7 8 7 4 2 4 5 16 24 23 27 26 26 29 27 23 23 24 24 24 24 24 21 20 19 17 16 16 16 15 14 13 12 10 10 10 10 9 6 3 0 1 2 2 3 5 5 4 5 6 7 9 10 9 9 10 10 10 10 10 10 9 8 7 7 7 8 8 8 9 11 11 11
2 1 1 2 3 3 4 3 3 2 3 7 6 4 7 8 11 11 10 11 7 7 3 1 4 6 7 3 1 6 8 16 24 23 26 23 25 29 27 25 23 22 23 24 23 24 22 19 17 17 16 15 15 15 13 12 12 10 10 10 10 8 4 2 1 2 2 3 4 5 4 5 6 7 8 10 10 9 10 11 10 10 10 9 9 8 7 7 6 7 8 9 10 10 11 11 11
3 2 2 2 4 3 5 3 4 4 4 6 5 5 8 9 11 12 9 10 8 7 2 1 2 3 6 3 1 6 5 17 24 23 24 22 24 26 25 24 22 23 23 23 23 23 23 20 18 17 16 16 15 13 12 12 11 10 10 10 9 7 4 2 2 3 3 5 5 5 5 6 7 8 8 9 9 9 10 10 10 9 8 7 7 7 6 6 7 7 8 9 10 10 10 10 10
1 1 1 2 6 3 5 2 4 5 4 6 6 5 8 9 10 11 9 10 6 5 3 3 3 4 5 3 2 2 5 20 25 23 22 21 23 24 24 24 23 23 23 23 23 24 23 21 18 18 17 16 15 13 11 10 9 9 8 8 7 6 4 3 3 3 5 6 5 6 6 7 7 8 8 9 9 9 10 10 9 7 6 6 6 6 6 7 7 7 8 9 9 9 9 9 9
0 0 1 1 6 4 6 5 6 6 4 6 7 7 10 9 9 10 8 8 5 3 5 3 1 3 6 6 5 5 12 23 24 23 21 21 21 22 23 24 24 22 22 22 22 23 22 21 19 18 17 15 14 12 10 10 9 8 7 6 5 5 3 2 3 4 5 5 5 6 6 8 9 8 8 10 9 8 10 10 8 7 6 6 6 6 6 7 7 7 7 8 8 8 8 8 7
1 0 0 1 4 6 9 8 8 6 4 7 8 9 12 9 6 6 3 5 6 4 4 3 1 1 6 8 9 12 18 24 24 23 21 21 20 20 21 21 22 22 21 21 21 21 21 20 19 17 17 15 13 11 10 9 8 7 6 5 5 3 2 2 3 4 4 5 5 6 8 9 9 8 9 10 8 8 10 10 8 6 6 6 6 6 6 6 6 6 7 8 8 8 8 8 8
0 1 2 2 5 8 9 10 8 5 5 7 8 9 13 8 3 3 3 6 9 6 3 4 1 1 6 10 14 18 22 25 24 23 21 20 19 19 19 19 21 20 20 20 20 21 21 20 19 17 16 15 13 12 11 9 7 6 6 5 5 4 3 3 3 4 4 6 6 7 8 9 10 9 9 8 7 8 10 10 8 5 5 5 5 5 5 6 6 7 8 9 9 9 9 10 11
1 2 4 5 6 8 9 10 8 6 6 6 6 10 13 11 6 4 5 8 9 8 6 6 3 1 8 14 18 20 22 24 24 23 21 19 18 18 18 18 19 19 19 20 19 20 21 20 18 16 16 16 14 13 12 10 8 7 7 6 5 5 4 3 3 5 7 7 8 8 8 8 9 8 7 6 6 6 7 8 7 6 6 6 7 6 7 9 9 9 11 12 13 13 13 14 15
1 3 4 5 5 6 8 8 8 7 6 6 7 11 13 12 10 6 7 10 8 9 7 7 7 5 11 17 18 20 22 23 23 22 21 20 18 17 17 18 18 18 18 19 19 20 20 20 18 16 17 16 15 13 12 12 9 7 8 7 5 4 4 4 5 6 7 8 8 8 8 9 8 7 6 5 4 5 6 8 8 9 8 9 10 9 11 11 11 13 13 14 16 16 16 17 16
1 3 3 6 6 6 8 8 7 7 7 6 7 10 12 10 9 5 8 11 8 8 8 9 11 10 13 15 16 20 23 23 23 22 20 20 19 18 17 17 17 17 17 17 17 20 19 20 19 17 17 16 15 13 12 12 9 7 8 8 7 5 5 5 6 6 7 7 7 7 8 9 7 5 5 6 6 6 8 9 11 11 10 11 11 11 11 10 10 11 10 12 12 12 14 14 15
2 4 4 7 8 7 8 8 7 6 7 7 6 9 11 10 9 6 8 9 5 5 7 10 14 14 14 15 16 19 21 21 22 21 19 19 19 18 18 17 17 17 17 17 15 17 18 18 18 17 17 16 15 13 11 12 9 8 9 9 8 7 6 6 6 7 8 7 6 6 6 6 5 3 4 6 6 6 8 9 9 9 9 11 10 9 8 7 7 7 6 10 8 7 12 10 10
2 5 6 8 9 8 7 7 5 4 5 7 7 8 8 11 10 6 7 5 4 5 7 11 14 14 15 16 17 18 19 18 19 20 19 19 19 18 18 17 18 17 16 17 16 15 16 16 17 17 18 16 14 12 11 11 10 9 10 8 6 7 7 6 5 7 7 5 5 5 5 5 4 4 4 5 4 5 8 7 8 6 7 7 6 6 6 6 6 5 9 12 8 7 9 8 6
2 5 6 8 8 7 7 5 3 3 6 7 6 6 6 12 10 6 6 4 4 6 9 11 12 14 16 16 16 17 19 17 17 19 18 19 20 19 19 18 19 18 16 17 17 17 17 16 17 17 17 16 14 12 10 11 10 8 8 7 6 6 6 5 5 6 5 3 4 4 5 3 3 4 4 4 3 4 5 6 9 6 4 5 5 6 7 7 5 6 11 13 8 8 6 8 7
4 4 5 8 7 7 8 5 4 5 7 6 5 5 6 11 9 5 6 5 6 7 9 10 11 14 15 16 16 17 19 19 18 19 19 18 18 19 19 18 18 18 17 17 18 18 18 17 17 17 17 16 15 13 11 10 9 8 7 7 7 5 4 5 5 5 3 3 3 3 4 2 3 3 2 4 3 4 4 5 8 4 4 6 7 8 7 4 3 6 13 11 6 5 8 10 10
2 4 6 6 6 9 8 6 6 5 6 4 5 6 6 8 8 8 7 5 7 8 10 10 11 12 14 15 17 16 16 18 19 20 20 18 18 19 18 18 19 18 18 17 18 17 17 18 18 17 17 16 15 13 11 10 9 8 8 7 7 6 4 5 5 3 3 3 3 2 2 2 5 4 1 3 3 5 4 4 5 4 4 5 2 5 5 4 7 9 12 9 4 4 6 9 8
2 6 7 5 6 9 7 7 6 5 4 2 3 5 5 5 7 10 9 7 8 10 11 11 11 12 13 14 15 16 16 17 18 19 19 18 19 19 18 19 18 17 18 17 17 17 17 18 18 17 17 16 15 13 11 10 9 8 8 7 7 6 5 5 4 3 4 4 3 3 1 1 3 6 3 1 3 2 1 2 3 4 4 4 3 6 5 6 11 11 11 11 10 11 12 13 13
5 6 6 4 6 6 7 8 6 4 4 4 3 3 5 4 3 6 11 9 9 11 10 12 12 12 13 12 13 14 15 17 18 18 17 17 17 18 18 18 17 17 17 17 17 16 17 18 17 17 17 15 14 13 11 10 9 8 7 6 7 7 6 5 4 4 4 3 3 3 1 1 1 4 4 2 4 1 1 2 3 3 4 4 4 8 8 9 12 11 13 13 13 15 14 14 14
7 8 6 2 4 4 8 9 6 3 2 4 2 1 3 3 3 6 12 11 10 12 10 11 11 11 13 13 13 12 12 17 19 17 16 16 16 16 16 17 17 17 17 18 17 16 17 17 17 17 16 15 13 14 12 10 9 8 6 6 6 6 5 5 5 5 4 2 2 3 1 1 1 3 3 2 4 5 4 4 4 2 4 5 6 7 9 12 12 11 13 14 15 16 16 16 15
9 8 6 1 1 1 8 9 8 2 1 3 2 2 3 2 5 8 11 12 11 11 10 9 8 10 12 12 12 10 11 16 17 16 17 17 16 16 16 17 17 17 17 17 17 17 18 17 17 16 16 15 13 13 12 10 9 9 8 7 7 6 5 5 5 5 4 3 3 3 2 2 1 2 3 3 4 8 6 5 7 4 5 6 6 7 11 13 13 12 13 16 18 18 17 18 16
10 7 5 1 2 2 7 9 10 5 4 6 3 1 3 2 8 10 9 11 11 10 10 9 7 9 10 10 11 11 12 14 16 17 18 18 17 16 16 17 18 17 17 17 17 18 18 17 16 16 17 16 13 12 12 11 10 9 9 8 7 6 6 6 6 6 5 4 5 4 3 3 1 1 3 4 4 8 6 5 9 8 7 8 7 7 10 13 14 15 15 18 20 20 19 19 19
8 5 4 0 4 2 4 7 10 7 6 9 4 2 4 3 7 10 9 11 10 10 10 8 7 9 9 9 10 11 11 13 16 18 18 18 17 17 16 17 18 17 16 17 17 18 17 16 16 15 17 16 13 11 11 10 9 9 8 8 8 7 6 7 7 7 7 6 7 6 4 3 1 1 2 4 4 7 6 5 8 8 8 10 9 8 10 13 15 16 18 20 20 21 21 21 21
5 4 3 0 3 3 2 6 10 8 8 11 7 2 3 2 7 9 9 10 9 8 10 9 8 8 7 8 10 11 11 13 17 17 18 18 17 16 16 17 17 17 17 17 17 17 17 16 16 16 16 16 13 11 11 8 7 7 6 7 7 7 7 7 6 6 7 6 7 7 5 3 2 0 2 4 4 6 7 7 7 7 8 10 10 9 11 13 15 17 18 19 19 21 21 21 22
2 3 3 2 4 2 3 8 11 12 10 11 8 2 1 2 8 11 10 11 10 7 9 9 8 7 5 5 7 8 10 12 15 16 18 18 17 16 16 17 17 17 17 19 19 17 17 17 16 17 17 17 15 12 11 9 7 6 5 7 6 7 8 7 6 5 5 5 7 8 6 4 2 1 1 3 4 6 6 8 8 8 9 10 10 11 13 14 15 18 20 19 20 22 22 20 20
0 2 3 4 6 3 4 7 10 15 12 11 9 4 0 4 9 11 11 12 11 8 9 9 8 6 4 2 6 8 10 11 12 15 19 19 17 17 16 17 17 17 16 18 20 17 17 17 16 17 17 16 15 13 12 10 8 7 6 7 7 7 7 7 6 6 5 5 7 9 6 4 4 2 1 2 3 5 5 7 7 7 9 9 11 12 14 15 16 18 19 20 21 23 24 21 20
2 3 3 4 5 8 8 5 7 16 12 10 11 6 3 7 9 11 10 11 11 9 8 9 8 6 5 3 6 6 8 12 12 15 20 19 17 17 17 17 17 17 15 16 19 17 17 18 14 16 18 15 15 14 12 10 9 8 7 8 8 6 6 6 5 5 5 5 9 10 6 5 6 4 1 1 3 4 5 5 5 7 8 9 10 12 12 14 16 18 18 19 20 22 23 20 20
5 4 5 6 5 7 7 5 4 10 7 8 12 6 7 10 9 11 11 10 10 9 8 6 6 6 6 5 5 2 5 10 13 16 19 19 18 18 17 17 17 17 16 17 18 16 17 19 14 14 16 15 15 14 13 11 9 10 9 9 9 8 8 7 4 5 6 6 9 9 6 6 6 3 2 1 2 3 5 5 5 5 8 9 9 10 11 14 17 18 17 19 21 21 21 18 19
8 7 6 8 8 6 4 4 3 3 3 5 11 8 10 11 9 10 11 10 10 8 8 7 7 8 8 7 5 3 5 9 12 16 17 18 19 18 16 17 17 17 16 17 18 17 16 18 17 14 14 15 16 14 13 11 11 10 9 10 11 10 9 8 7 6 6 8 10 9 7 7 5 4 2 1 1 2 4 5 6 3 5 8 9 9 12 15 18 18 17 20 22 21 20 17 18
10 8 6 8 8 6 5 5 3 2 3 3 12 10 10 12 11 10 9 10 11 9 8 8 9 8 7 7 7 6 4 7 10 14 15 17 18 18 17 17 18 18 17 16 17 17 16 16 19 17 13 14 16 15 13 12 11 11 10 10 10 11 10 9 8 8 7 11 11 8 7 6 5 4 2 2 3 1 2 4 5 4 3 8 9 9 12 16 16 15 17 20 19 19 19 16 17
9 8 7 7 5 6 6 5 3 2 3 1 9 10 9 12 12 11 11 9 8 9 8 7 9 8 7 8 8 7 5 7 10 12 14 17 19 19 18 17 18 18 17 17 17 16 17 15 18 20 15 13 14 15 14 11 11 12 8 3 3 6 9 9 8 6 8 12 10 8 7 6 4 5 4 4 4 3 1 4 5 4 2 5 8 9 12 16 15 14 17 18 17 17 16 15 15
8 8 8 6 5 6 5 2 1 3 4 4 2 6 7 9 10 11 12 8 3 3 4 3 4 5 7 9 9 9 9 8 11 11 11 16 19 19 18 17 17 18 17 18 18 16 17 15 16 19 16 15 13 15 15 12 12 11 4 5 4 4 6 6 6 4 7 12 11 11 9 6 5 5 4 3 4 3 1 2 4 4 4 5 7 9 10 13 16 16 16 16 16 15 15 16 13
8 10 8 8 9 8 7 4 5 7 7 6 2 3 6 7 8 9 10 8 4 2 3 3 2 2 5 8 11 12 11 10 12 10 10 15 16 15 17 17 17 18 17 18 19 18 17 16 17 17 17 17 14 15 15 11 13 10 3 4 3 4 6 5 6 5 6 8 9 11 11 9 6 5 4 3 3 2 0 1 3 3 4 5 6 8 9 11 13 15 16 15 14 14 14 16 13
8 10 10 11 12 10 10 9 8 7 5 1 2 3 3 6 6 6 8 11 10 7 8 8 6 6 7 9 11 12 11 11 12 10 11 13 14 13 16 18 17 17 17 18 19 19 18 17 18 18 17 17 15 17 17 12 13 12 6 6 5 6 6 5 9 10 10 9 9 10 11 10 6 4 6 4 4 3 2 2 1 2 3 5 6 7 8 10 11 13 16 14 13 13 13 14 14
6 4 7 11 9 6 10 12 9 6 5 1 5 6 1 5 5 5 8 10 13 11 12 11 8 7 7 8 10 11 12 11 11 11 12 11 12 13 18 20 17 16 17 20 19 18 19 17 19 19 17 18 16 19 20 13 14 14 10 10 9 9 9 10 12 12 12 11 8 10 11 10 7 6 8 5 4 5 5 4 1 1 3 4 5 7 8 9 9 10 14 14 11 12 12 12 13
5 3 6 11 7 5 11 13 8 7 7 4 7 7 2 3 5 7 6 6 11 12 12 13 12 9 9 9 10 11 12 12 11 11 12 11 9 11 17 17 15 16 17 20 19 19 19 18 19 19 18 18 16 20 21 15 14 15 13 12 12 13 11 11 12 9 9 8 8 9 8 8 8 8 9 6 6 7 6 4 2 1 1 2 5 6 7 8 6 5 11 13 10 9 11 11 12
8 5 6 9 9 9 12 10 8 7 7 6 5 6 3 2 5 7 5 4 8 10 10 13 15 16 15 13 10 9 11 12 12 12 13 12 9 11 16 16 15 17 17 18 19 19 18 18 20 19 18 19 17 21 23 17 14 15 15 13 11 12 12 12 11 7 7 10 9 7 5 7 10 9 8 7 8 7 6 5 3 3 2 1 5 5 5 7 6 5 9 11 9 8 9 9 10
11 10 8 7 9 10 10 8 8 7 6 6 6 7 3 2 2 3 3 3 6 7 8 10 13 16 17 14 11 10 11 12 12 12 13 13 12 12 14 16 17 17 16 17 17 19 19 18 20 20 19 19 18 22 23 18 15 15 15 13 11 9 8 13 15 9 6 10 9 7 5 7 10 11 10 9 9 9 8 6 3 2 2 1 4 5 6 7 6 7 8 9 8 8 8 9 10
11 10 8 9 10 10 8 7 6 6 6 7 8 8 2 3 2 3 1 3 4 5 7 9 12 14 14 14 14 14 12 11 11 12 12 14 15 13 12 14 17 17 15 12 12 16 19 19 21 21 20 19 18 21 22 19 16 15 15 13 11 10 7 9 15 13 10 8 7 7 9 10 9 11 13 12 12 13 10 6 4 3 1 2 4 5 6 7 7 7 6 7 8 7 8 8 10
9 7 7 8 8 7 6 5 5 5 6 6 6 6 3 2 2 6 2 4 4 7 8 10 13 13 12 13 14 15 14 12 13 12 11 14 15 14 13 13 14 16 15 13 14 16 18 19 21 23 22 20 19 19 21 20 18 16 15 14 12 12 10 8 11 13 12 11 10 10 11 10 8 9 12 12 12 12 10 6 3 3 1 1 4 5 5 6 6 5 5 5 6 6 6 7 9
7 6 7 7 6 3 3 4 4 5 6 6 6 5 4 2 3 8 5 4 5 8 9 10 11 12 12 11 11 13 13 14 14 12 12 13 12 13 15 14 14 15 15 17 17 17 16 19 20 23 25 22 19 19 20 20 19 17 16 15 13 12 12 10 10 11 11 13 14 12 10 8 6 6 8 9 9 9 9 7 4 3 0 1 3 5 5 6 6 5 4 5 5 5 5 7 9
8 8 6 6 5 3 3 4 4 6 6 6 8 4 3 2 5 11 11 9 7 7 9 10 10 10 11 10 10 11 13 14 13 12 13 12 12 15 18 17 15 15 16 19 20 18 15 18 20 22 25 24 20 19 21 20 20 19 17 16 15 14 13 12 11 12 12 14 15 14 12 10 9 8 8 8 8 8 8 8 6 3 2 2 5 5 5 6 7 6 6 5 5 6 6 6 8
8 8 6 7 7 4 4 4 3 5 4 5 8 3 1 1 3 7 11 13 9 7 8 10 8 9 10 8 7 8 10 12 11 12 12 12 14 17 19 19 17 15 16 19 19 16 14 15 22 23 23 25 22 20 21 21 20 19 18 17 16 16 15 14 13 13 13 14 15 15 13 11 12 11 9 9 9 8 9 9 6 3 2 5 7 5 4 5 7 8 7 5 5 7 8 8 9
5 6 7 9 6 3 5 5 3 5 5 3 3 1 1 2 4 5 10 16 12 9 9 9 9 10 9 8 7 7 7 9 11 12 12 13 16 18 19 20 18 16 15 16 17 15 13 10 15 22 23 23 23 22 21 22 20 19 19 18 17 17 17 16 15 15 14 14 15 15 13 11 10 10 10 9 7 7 7 8 8 6 5 7 7 5 4 5 6 7 6 6 5 6 7 8 9
4 5 7 5 3 4 8 6 2 5 6 2 3 2 2 3 6 5 11 15 9 10 10 8 9 10 9 8 6 5 5 6 7 9 12 12 14 17 19 19 20 17 13 16 21 20 16 13 12 18 24 23 23 23 22 21 21 19 19 19 17 18 18 16 16 16 15 15 15 14 14 13 9 8 9 8 9 9 6 8 11 9 7 8 7 5 5 5 6 7 6 6 6 6 6 7 8
6 4 3 4 4 6 6 2 2 5 3 4 1 2 1 3 3 5 12 12 7 8 9 9 10 9 7 6 5 5 6 3 2 4 8 11 12 14 16 17 20 18 14 17 23 23 20 16 15 13 19 25 23 24 23 21 22 21 19 20 19 18 18 17 17 18 17 15 15 14 14 15 12 10 9 9 13 13 8 8 11 10 9 9 8 7 6 6 7 8 6 7 7 7 6 7 8
9 4 4 4 5 4 3 2 4 4 1 2 3 3 1 3 3 7 6 9 9 8 9 8 7 7 7 7 6 7 7 4 3 3 3 7 9 12 15 17 19 19 16 16 21 23 20 18 14 17 16 22 21 22 24 21 21 21 19 20 21 19 18 18 18 18 18 16 15 14 13 13 12 12 11 9 12 14 12 10 11 11 11 9 8 7 6 6 7 7 7 7 7 7 7 7 8
7 8 5 4 3 3 2 4 5 3 1 2 3 3 1 5 2 5 2 5 9 8 10 9 4 5 6 6 7 7 6 4 4 4 2 5 8 12 16 19 19 21 19 16 19 23 20 20 20 14 12 18 20 20 22 22 21 21 20 20 21 21 19 19 19 17 16 16 17 15 14 12 11 12 12 11 10 11 13 13 12 12 12 10 9 7 7 6 6 7 8 8 7 7 7 8 8
5 6 6 5 3 2 2 4 4 1 2 0 2 1 1 5 3 7 4 8 10 10 10 8 7 6 5 4 5 6 5 3 4 4 3 4 6 11 17 19 20 21 22 20 20 22 21 21 24 18 12 18 24 21 21 24 23 21 21 20 21 22 21 20 19 18 15 15 17 17 16 14 12 12 12 12 12 11 12 12 12 13 12 11 11 8 7 6 6 8 8 8 8 8 7 7 7
8 8 9 7 5 5 4 4 3 1 1 1 2 2 1 5 4 7 8 8 12 13 9 7 9 8 6 6 7 6 6 6 5 5 4 3 4 8 11 15 20 20 21 24 23 21 21 19 22 22 17 20 26 22 21 24 25 23 22 21 21 23 24 21 19 18 17 16 16 17 18 17 15 14 12 13 13 12 11 10 9 12 14 13 12 9 7 7 7 8 8 8 8 8 8 8 6
Wind_Direction
160 153 163 190 207 236 239 206 250 236 233 284 281 187 211 226 136 152 162 141 132 85 58 84 69 11 6 86 83 54 61 77 53 103 108 130 144 146 143 140 141 139 137 142 148 145 139 137 137 135 130 128 125 123 122 121 119 115 114 113 111 110 107 105 104 104 101 93 88 84 80 76 68 57 46 42 43 45 23 5 1 356 352 1 2 347 351 0 4 9 12 21 32 19 12 17 23
165 162 193 228 226 235 248 236 262 231 205 279 254 112 201 195 152 154 129 128 163 110 103 102 60 26 319 352 74 67 63 65 83 95 111 135 142 140 140 142 141 139 137 141 145 142 140 139 140 139 134 131 127 125 125 124 121 117 115 114 113 111 108 108 109 108 102 97 93 84 74 67 61 49 30 21 23 36 20 5 351 342 346 357 4 346 347 0 4 8 11 23 28 12 4 3 13
188 192 207 220 245 252 251 240 256 311 276 268 182 109 227 172 150 116 108 131 161 123 124 111 68 8 347 79 61 72 81 80 100 105 121 138 139 137 142 143 140 138 138 140 142 141 141 142 143 140 136 132 129 128 129 127 121 118 118 116 115 113 112 113 112 109 104 102 94 80 71 66 58 39 22 9 3 15 18 5 341 331 340 351 359 342 345 2 4 6 8 13 17 8 8 5 9
214 232 226 202 263 283 259 249 254 297 285 285 161 132 226 164 138 109 103 136 155 131 125 111 68 350 36 71 49 71 94 92 109 115 126 138 136 140 143 142 139 138 139 141 142 141 141 145 145 141 137 134 132 132 130 127 122 121 119 118 120 117 117 116 113 113 111 108 97 87 77 67 52 28 18 3 349 355 4 353 331 326 336 345 351 341 346 2 0 359 3 4 10 5 10 4 357
248 260 262 257 272 300 259 266 256 245 255 288 335 114 199 146 133 124 115 139 141 124 114 101 79 352 49 48 353 67 92 103 116 123 129 135 138 141 142 140 140 139 141 141 141 141 143 146 145 142 140 138 137 134 130 126 123 122 122 123 123 121 121 120 119 119 113 111 102 94 84 69 41 16 7 359 341 342 352 344 327 327 332 336 343 340 344 356 353 348 354 0 1 357 357 345 339
268 277 297 4 325 331 287 278 276 235 197 271 21 72 155 150 140 128 114 78 86 104 101 93 103 106 83 32 323 44 47 118 123 127 130 137 141 140 139 141 141 141 142 141 139 141 145 147 145 143 141 140 138 135 131 126 126 126 128 131 128 126 126 126 125 121 113 108 100 90 81 65 30 7 352 347 334 334 345 341 332 327 326 328 336 341 340 348 347 336 344 356 346 338 338 340 346
278 315 336 16 294 313 272 265 274 250 100 77 88 120 167 152 140 122 117 112 69 73 53 93 117 108 92 288 94 38 326 120 126 127 131 138 141 140 140 140 141 142 142 139 137 141 147 148 145 143 141 139 136 136 133 128 130 131 134 137 134 133 133 133 132 124 115 106 94 81 63 43 12 357 342 337 327 328 340 337 328 322 323 326 331 337 337 341 341 329 335 344 333 336 342 347 352
239 333 169 254 261 219 267 276 292 292 79 76 83 115 144 140 131 119 121 123 113 120 110 125 128 98 93 241 110 359 356 113 127 129 132 137 139 142 142 142 142 141 139 135 135 142 148 148 145 142 143 139 136 137 135 135 137 136 140 141 139 140 140 137 133 126 121 112 84 63 36 10 354 347 337 328 320 325 336 330 324 319 324 326 324 327 328 334 333 324 330 338 330 337 347 346 349
193 191 186 276 277 257 263 281 288 335 66 71 73 96 123 130 128 126 124 106 110 126 114 140 125 99 112 108 90 322 56 117 130 133 134 136 140 140 141 145 142 139 136 135 137 141 146 148 145 143 146 144 140 139 138 142 143 142 144 143 144 143 140 135 128 129 127 109 11 354 351 352 344 336 326 319 320 327 329 322 321 319 321 320 317 321 324 330 329 322 328 337 329 329 339 340 339
192 194 282 280 278 275 275 333 319 39 74 75 71 99 123 124 125 122 116 109 114 115 110 279 90 111 119 92 88 320 11 126 132 138 138 140 142 137 139 141 136 137 137 138 140 140 145 149 146 145 150 149 145 142 144 146 146 148 147 146 148 145 139 138 137 165 300 305 312 326 340 345 331 323 316 313 320 326 324 319 320 318 317 317 317 320 323 329 328 324 327 333 327 320 328 333 335
287 183 259 274 274 287 354 48 56 39 90 91 73 85 106 115 123 114 106 114 135 124 137 263 95 113 109 71 98 310 280 140 137 143 141 144 139 131 137 140 135 136 139 142 141 141 146 148 147 147 150 149 146 145 148 150 150 152 153 152 149 150 149 152 194 290 287 295 303 323 335 330 319 311 309 313 320 325 323 320 322 322 318 318 319 318 323 331 328 324 326 332 332 324 322 325 329
306 38 271 301 280 294 359 57 96 62 79 83 73 62 97 119 118 117 119 126 143 123 105 354 112 129 110 90 117 321 288 146 141 143 141 144 134 128 136 141 142 140 142 144 142 144 148 150 150 150 150 148 147 148 153 153 155 156 156 155 153 159 166 183 260 274 277 296 304 319 319 309 308 304 310 319 325 330 329 326 327 327 321 319 320 319 324 329 327 325 324 327 329 327 325 322 324
304 0 1 322 280 322 7 40 88 82 59 63 83 69 95 112 104 114 125 124 130 119 109 274 136 126 108 104 92 323 281 146 143 143 142 143 136 135 139 144 148 146 148 148 146 148 149 153 154 154 153 149 150 152 159 160 158 156 154 158 163 173 187 213 264 280 293 304 309 316 304 298 306 307 317 328 334 336 337 336 334 333 327 323 323 323 324 322 322 323 323 323 324 324 325 324 323
282 348 26 317 288 333 26 26 67 63 49 68 98 89 92 97 98 115 125 121 113 109 140 201 138 105 116 122 109 284 179 145 144 145 145 143 140 142 144 147 147 147 152 152 152 152 151 154 155 158 157 153 157 160 168 170 163 163 162 165 172 184 202 239 278 292 299 303 307 308 303 311 315 311 322 332 331 335 342 341 339 339 329 324 323 321 323 326 329 327 325 324 321 319 319 319 320
176 239 102 316 300 352 31 28 66 60 44 77 96 96 89 85 96 113 122 118 103 122 147 181 171 106 150 158 144 183 157 145 146 145 145 142 142 142 145 147 145 148 153 153 155 155 155 156 157 162 160 157 164 170 179 185 183 189 186 178 180 189 216 265 284 286 295 300 300 303 311 321 318 314 327 329 321 327 337 339 339 333 323 319 318 321 326 332 336 337 336 331 322 316 314 310 305
184 209 109 254 322 18 26 20 50 57 39 79 108 108 89 73 75 98 117 113 117 166 159 142 236 155 167 156 149 169 155 147 148 146 144 141 142 142 145 146 145 151 153 154 156 158 160 159 160 164 165 165 170 173 183 199 199 199 194 185 185 191 225 253 273 280 290 294 298 314 319 319 323 326 323 319 319 327 330 332 332 322 318 319 318 318 319 329 335 329 324 323 320 315 315 314 301
209 188 296 333 12 22 24 20 34 46 43 80 119 113 99 98 72 95 130 114 124 143 111 99 150 202 157 144 151 162 153 150 150 146 144 143 145 145 148 147 148 152 153 155 157 160 163 162 163 165 170 171 172 171 176 194 192 185 183 178 182 191 213 237 272 267 271 284 298 321 321 313 318 318 310 309 318 324 320 319 324 324 324 327 327 319 314 319 318 314 311 308 310 312 318 314 301
344 287 321 13 26 19 22 25 36 49 46 67 98 98 106 123 128 144 132 109 114 114 94 98 107 140 139 144 157 162 154 152 151 148 148 147 148 149 151 151 153 155 154 156 158 162 163 163 164 165 171 172 173 171 170 184 185 177 176 176 189 203 219 239 261 251 262 281 293 304 309 301 297 296 294 299 302 298 297 299 307 321 326 326 323 314 315 314 305 305 307 307 307 305 308 307 300
249 293 342 22 28 26 27 30 41 52 52 50 75 99 111 126 135 156 138 121 122 113 113 123 126 143 141 148 164 165 156 154 153 153 153 150 152 153 152 155 156 154 154 157 160 164 163 163 165 166 170 172 173 171 167 181 194 182 178 187 200 222 231 236 248 249 260 274 280 283 290 286 276 280 286 295 302 286 296 303 303 314 318 321 324 317 315 313 303 301 304 308 309 302 300 300 296
249 290 356 16 17 24 32 34 37 55 71 59 66 94 104 122 130 140 134 132 141 128 136 144 142 154 149 153 168 166 159 158 156 157 157 153 154 155 155 158 154 152 156 159 162 164 164 165 167 168 171 172 173 173 166 177 199 190 183 196 207 229 233 242 256 254 256 262 273 275 278 279 272 268 280 300 318 317 317 314 305 310 314 314 324 328 327 327 317 312 311 308 311 306 295 297 294
311 323 343 8 11 14 30 39 31 45 70 69 75 87 102 124 112 111 134 134 142 148 162 155 149 156 154 158 170 168 162 160 160 160 160 156 156 156 158 158 152 156 158 158 164 162 164 168 167 169 172 172 172 175 170 173 191 192 189 195 200 219 232 246 249 249 254 254 268 277 277 290 293 270 283 297 305 309 303 307 308 308 312 314 322 329 331 332 326 330 321 307 320 309 277 284 308
323 326 328 6 14 5 25 51 31 26 67 65 71 80 104 113 97 119 154 146 153 174 177 158 153 158 159 166 172 170 162 163 165 163 163 159 159 159 158 157 155 159 157 156 163 161 165 170 168 168 170 172 171 176 178 174 185 192 188 187 196 214 226 235 237 253 259 254 268 287 286 295 308 283 277 275 284 309 293 312 343 332 316 316 313 320 338 338 320 326 322 314 336 343 286 272 319
325 312 324 7 13 2 16 62 49 18 58 58 67 74 90 98 102 148 149 140 159 169 169 158 156 156 164 173 175 172 162 167 170 164 166 163 162 161 157 160 158 158 158 159 162 163 172 175 170 166 168 173 171 177 181 173 180 195 186 180 200 216 217 222 237 253 251 260 277 295 292 297 321 292 283 274 270 327 319 337 356 354 321 316 320 329 351 359 332 311 318 315 328 347 300 256 265
302 301 340 6 8 14 18 59 75 52 60 58 76 78 74 91 112 144 119 133 156 161 162 159 158 156 169 178 175 173 165 168 170 164 167 166 165 161 158 161 159 158 162 166 165 167 175 173 167 165 168 173 170 178 183 170 179 196 187 178 202 218 219 230 243 249 243 264 265 281 293 300 309 282 301 315 297 337 349 354 345 335 310 327 350 342 323 313 294 289 296 284 253 256 246 243 241
291 320 351 1 16 36 31 50 63 63 82 78 75 73 57 77 104 115 114 153 159 155 157 159 163 161 178 183 174 172 167 168 169 167 169 170 168 162 162 162 159 160 164 168 165 167 172 165 164 167 168 170 170 180 181 170 182 196 190 184 200 206 214 237 248 255 248 252 229 218 270 285 307 303 286 316 344 352 345 356 331 300 309 318 314 323 320 310 309 310 305 295 280 294 303 309 298
356 328 341 360 37 47 40 60 62 48 77 70 60 82 75 79 100 113 128 165 162 151 152 160 167 170 184 186 173 169 170 170 171 172 172 170 167 166 166 160 159 164 164 166 163 167 169 161 166 169 167 169 172 180 177 171 180 192 196 188 190 193 211 238 249 249 238 232 200 176 248 279 325 341 27 4 336 351 333 352 304 268 318 330 273 306 346 355 330 334 341 341 348 346 337 330 329
329 306 318 359 55 66 68 76 72 49 71 64 29 65 79 88 83 112 133 152 159 147 153 165 167 176 185 183 173 170 173 172 171 173 172 168 166 169 165 157 162 164 162 165 163 167 165 162 170 168 165 169 172 177 173 171 174 184 200 195 194 198 209 225 226 237 241 223 159 139 228 215 267 330 36 36 303 310 94 311 274 270 346 8 339 328 342 344 335 342 342 335 342 343 332 328 337
290 284 295 32 72 80 94 94 89 56 75 83 67 97 99 115 69 100 132 148 161 151 157 169 168 175 182 181 173 174 178 173 172 173 172 168 168 170 163 161 164 161 164 165 161 165 163 166 171 163 164 171 176 173 167 170 173 182 200 209 212 195 191 217 222 220 226 216 144 129 156 194 263 312 31 29 308 332 347 304 283 314 18 4 330 335 344 336 331 335 335 331 334 336 332 333 337
277 283 290 125 133 156 108 116 121 105 256 141 188 197 142 158 95 105 135 147 153 150 155 164 172 175 177 180 173 178 183 172 172 174 174 170 169 172 165 164 164 161 166 160 160 166 163 168 169 162 164 173 183 168 160 175 178 185 192 207 218 188 182 211 224 212 200 199 169 156 164 186 277 329 7 21 326 327 342 312 307 346 16 343 324 340 341 337 337 335 339 338 334 333 332 335 333
273 273 274 252 263 228 112 125 133 137 198 165 210 296 88 102 105 117 142 146 143 150 160 162 172 176 177 182 175 182 186 175 175 177 177 171 170 174 168 165 162 163 163 156 163 166 163 168 165 165 162 171 191 165 159 180 179 188 190 200 206 187 198 203 212 207 186 190 169 162 172 182 241 340 357 7 332 330 360 328 319 342 349 324 318 343 342 342 343 338 342 340 337 338 333 333 329
269 257 244 288 305 285 129 153 141 135 171 166 214 329 70 88 120 130 147 153 151 155 163 162 171 177 179 184 181 184 185 182 183 180 175 169 171 174 168 164 161 162 161 158 164 163 166 167 161 166 158 165 191 166 162 182 179 188 187 200 193 175 207 205 207 201 180 189 170 160 167 175 228 18 4 354 340 331 340 328 335 346 343 338 334 353 2 352 342 336 342 340 340 341 335 335 329
269 267 250 88 293 290 262 213 165 149 174 180 209 303 63 115 142 146 153 156 162 166 163 167 179 182 182 189 191 185 181 187 189 183 173 169 175 174 167 166 163 160 162 161 160 163 168 165 163 167 158 165 183 170 170 180 183 189 179 192 181 171 208 207 204 205 181 178 162 156 154 164 213 113 5 352 342 322 320 322 349 353 340 348 350 359 3 353 344 338 339 338 339 337 332 332 330
292 290 293 313 291 308 298 244 189 158 168 184 207 269 33 150 151 154 162 161 168 175 167 173 181 186 191 204 212 191 180 190 192 185 176 174 177 173 168 168 164 162 169 163 157 168 168 162 171 168 162 168 172 173 174 173 187 193 180 189 180 176 203 203 194 202 181 163 152 149 143 148 168 117 27 3 330 322 337 327 341 357 338 342 356 0 358 352 344 338 336 337 341 336 330 329 339
257 244 263 273 283 273 260 251 176 157 173 182 194 238 66 141 152 156 168 169 171 174 172 180 177 187 197 222 247 208 182 192 195 187 179 177 178 175 171 169 165 165 175 164 157 174 166 161 178 167 164 171 167 173 172 173 187 182 189 198 188 187 202 204 188 184 186 171 146 138 139 151 147 115 43 11 333 319 329 323 334 347 336 349 5 0 352 346 342 337 334 336 344 341 332 334 356
257 226 271 261 236 220 232 268 162 172 198 178 173 210 141 142 156 160 173 174 177 176 173 182 173 183 189 202 254 228 191 195 194 191 183 178 178 178 175 171 169 167 173 166 160 176 165 160 179 162 162 171 165 170 171 179 183 170 194 197 185 197 209 212 194 177 181 159 130 131 142 143 130 111 81 340 340 327 315 330 341 334 344 9 10 357 343 337 338 336 333 336 343 342 338 344 8
297 274 284 282 257 224 232 284 191 186 218 174 169 186 140 151 167 166 172 175 187 180 161 175 179 187 190 204 250 276 229 212 194 195 187 178 179 181 178 173 174 172 174 171 164 179 169 160 174 165 164 170 164 166 169 185 181 170 194 190 179 192 199 202 191 181 179 152 131 136 148 132 119 119 118 271 316 318 309 324 321 330 11 22 3 347 338 335 332 326 332 345 344 343 347 355 11
302 299 280 278 280 274 270 275 227 198 277 165 156 155 147 160 178 173 166 169 189 187 169 176 186 194 189 195 216 195 243 234 203 202 192 180 179 182 179 175 181 178 176 175 168 181 177 164 171 173 175 171 166 167 170 187 183 172 192 191 182 182 187 191 180 189 178 137 128 129 136 136 132 145 163 196 200 290 309 320 322 351 22 7 355 336 331 336 330 322 339 354 347 347 351 358 17
285 294 283 276 271 283 285 262 235 219 292 123 129 141 154 159 175 181 168 174 186 183 187 189 182 193 188 189 207 195 235 254 219 206 196 187 181 182 182 179 186 183 178 180 176 182 184 176 170 172 186 178 167 170 174 187 182 175 191 195 189 175 173 185 180 190 170 132 133 138 135 139 145 158 201 244 182 160 333 327 341 26 24 357 2 346 335 338 334 337 355 360 352 352 350 354 24
280 284 274 273 283 300 277 251 239 215 269 122 132 136 143 151 164 173 173 189 190 167 182 195 182 191 195 195 204 199 219 249 228 208 200 197 185 182 184 183 188 186 181 182 183 185 186 185 167 165 187 189 174 172 173 185 182 181 188 155 163 160 158 179 181 179 155 135 144 162 150 145 171 184 207 245 189 157 317 308 328 6 12 354 357 348 341 338 342 355 3 5 358 356 352 350 20
260 264 270 274 269 282 280 232 229 268 277 275 164 118 132 149 150 160 172 185 199 160 167 181 175 182 197 203 202 201 204 219 228 218 209 204 189 181 184 187 190 188 185 183 185 190 189 187 167 163 184 192 186 173 170 186 181 183 185 77 63 99 114 140 150 148 139 136 148 161 158 161 179 185 184 186 165 162 274 290 323 353 0 347 344 346 349 345 349 1 8 10 5 1 354 346 4
247 244 259 278 274 286 314 326 319 301 274 256 242 126 140 150 150 162 167 159 170 228 200 175 190 195 208 214 206 203 201 208 220 220 220 209 183 176 185 188 193 191 187 186 188 190 190 188 173 170 183 190 192 173 171 187 171 165 162 115 101 106 106 119 150 165 142 145 169 167 163 166 171 178 163 139 126 107 319 288 312 323 357 1 352 346 350 350 353 7 13 10 10 9 358 348 356
258 244 236 251 272 303 323 309 301 295 277 264 274 267 141 139 159 164 157 150 155 188 198 181 193 211 206 207 206 206 203 209 217 215 228 211 169 174 195 191 193 195 188 190 192 187 188 188 176 175 183 189 191 171 173 185 164 159 167 167 169 151 154 178 187 181 163 179 196 166 157 160 168 173 145 134 124 124 195 239 296 311 340 350 348 341 345 352 359 14 16 11 13 12 3 357 356
268 276 262 254 261 298 299 287 283 280 289 158 214 254 154 144 176 167 167 155 146 174 193 170 169 210 213 198 197 204 202 207 214 212 228 216 164 178 203 193 191 200 195 193 194 186 186 183 173 177 184 189 189 171 175 183 162 165 181 184 184 178 184 196 203 193 171 177 170 148 156 158 164 159 139 150 170 164 215 227 156 19 340 339 345 348 348 353 3 14 15 17 15 11 14 10 1
263 27 328 294 303 304 276 276 280 287 296 251 226 258 273 157 161 154 163 145 143 174 189 166 160 185 215 215 196 195 200 203 206 205 219 218 182 191 204 195 194 205 203 196 191 184 185 179 172 178 181 189 190 169 174 184 167 169 186 193 188 187 192 191 201 199 154 134 131 149 164 154 158 150 138 163 183 175 200 202 205 288 328 356 343 348 355 352 1 16 16 22 16 12 21 16 11
265 320 345 308 304 295 281 283 282 278 285 279 274 280 266 107 116 143 151 147 163 184 189 178 168 169 191 210 200 194 200 201 202 204 211 213 215 213 200 195 204 208 205 204 194 184 185 177 172 177 180 191 190 167 171 183 175 175 189 201 203 199 195 177 187 204 141 137 160 176 158 156 171 163 156 176 176 178 186 185 230 251 181 43 346 349 11 358 3 30 19 23 21 15 24 17 13
267 305 337 301 276 273 270 271 275 278 283 280 278 274 262 87 97 143 153 180 193 198 194 191 180 171 179 186 190 202 203 199 199 205 211 209 215 218 202 202 211 206 205 210 201 188 186 179 172 175 180 191 185 165 171 182 178 181 191 202 211 219 209 169 175 198 159 154 180 177 157 188 188 169 172 185 176 178 178 179 205 200 177 23 358 357 16 9 20 49 28 27 35 25 25 22 18
281 299 305 279 261 257 253 250 267 278 273 268 268 276 314 93 95 76 101 237 210 196 193 188 185 180 176 171 177 192 194 194 194 199 211 210 208 213 218 218 210 208 216 225 223 201 188 181 175 174 179 189 181 164 172 182 181 185 193 201 202 211 222 171 168 182 170 165 188 184 186 205 194 168 175 187 187 184 172 174 185 135 83 12 33 21 24 20 29 57 45 38 46 37 31 26 25
284 282 274 276 261 245 245 248 251 255 267 283 292 306 28 77 88 87 122 244 183 182 189 184 182 178 177 175 175 181 182 186 190 193 202 206 206 207 215 217 208 215 219 212 231 226 195 183 178 171 176 191 185 169 174 183 185 188 192 198 198 202 215 192 170 174 171 177 198 210 211 205 192 180 182 186 186 177 160 152 155 114 66 13 68 53 36 35 41 56 70 65 55 43 34 28 34
252 256 259 276 271 249 260 265 258 267 273 284 303 333 51 86 120 123 174 222 171 177 178 176 178 171 175 181 176 175 177 181 187 192 197 200 203 202 208 214 209 212 208 199 225 239 205 184 180 172 174 189 191 179 179 184 187 191 191 193 195 200 212 207 186 182 183 188 194 210 218 204 200 203 186 177 173 166 152 139 130 124 171 213 121 96 55 64 81 75 77 82 64 39 24 28 42
214 232 239 253 269 273 269 268 275 283 278 286 303 334 82 129 139 145 171 183 171 164 160 165 171 164 168 177 178 174 172 178 183 190 195 199 201 201 206 210 204 204 208 206 219 240 224 189 184 180 176 185 195 187 183 187 190 192 192 192 193 196 208 212 201 195 195 194 196 205 206 186 188 208 193 168 159 147 134 131 137 161 202 154 126 103 57 68 104 106 96 90 68 46 31 32 46
213 219 228 247 257 253 269 273 267 282 306 318 314 331 117 179 146 144 143 143 145 136 136 143 145 155 163 172 182 178 172 173 175 184 195 200 200 203 207 208 207 209 212 211 212 234 243 204 186 185 178 182 195 193 186 189 194 194 193 194 193 193 201 207 209 209 203 197 197 205 211 195 186 199 186 145 139 138 126 129 143 155 150 119 113 104 63 70 101 106 101 96 76 57 43 42 47
231 216 220 237 248 252 265 253 255 289 299 312 346 21 276 148 158 174 118 113 121 117 113 119 131 150 161 166 181 189 180 167 168 182 195 200 199 202 208 209 213 213 207 211 215 224 246 238 195 185 183 186 193 195 192 191 196 198 194 197 199 195 198 202 207 216 218 209 203 202 208 207 194 184 158 127 139 158 138 143 152 143 134 124 120 127 113 100 107 106 98 89 79 66 53 49 50
268 253 239 245 314 303 262 233 233 282 274 292 82 104 279 135 157 175 112 100 105 115 120 131 137 145 156 164 172 190 194 171 167 180 187 198 202 203 208 208 210 212 204 211 222 223 232 257 246 201 188 189 194 197 197 194 197 202 198 198 204 201 199 203 204 207 215 217 218 212 198 198 202 180 161 162 175 167 139 145 149 137 141 146 138 130 118 116 121 114 104 97 90 77 65 57 51
243 266 308 318 313 303 289 280 286 269 279 331 333 154 227 180 145 79 95 110 126 124 128 139 136 137 151 160 162 183 191 167 102 142 169 189 199 202 210 211 209 208 204 209 220 225 222 231 268 262 208 195 196 197 200 199 198 203 203 200 205 207 203 207 206 199 203 214 222 220 200 191 196 196 195 186 168 161 154 152 148 143 151 153 142 129 121 125 126 120 115 108 100 86 75 66 56
249 305 357 307 281 312 330 290 268 254 202 301 258 126 36 273 71 60 90 132 132 116 111 121 126 127 141 158 171 177 168 138 110 115 166 191 191 202 214 217 214 208 203 205 213 222 224 216 244 281 249 209 202 201 202 205 202 202 207 203 203 210 207 210 214 202 197 207 216 218 209 195 190 193 193 171 157 163 166 159 153 154 155 151 145 138 131 127 122 123 125 112 102 92 79 73 64
278 309 312 281 286 326 297 265 281 286 204 256 254 112 23 310 93 133 180 104 100 99 101 111 105 84 110 149 164 158 145 128 140 154 230 210 184 199 214 215 216 212 205 202 203 209 221 222 217 238 245 212 210 215 207 208 210 205 209 207 201 208 210 210 217 214 204 205 209 213 213 203 194 193 183 174 182 177 161 161 165 159 155 153 151 145 139 141 138 139 138 122 110 103 90 81 74
211 238 244 235 222 218 240 254 265 254 125 231 283 111 83 288 210 152 103 58 74 76 81 114 137 124 134 145 122 126 138 143 152 163 223 233 204 207 210 208 209 211 207 203 202 201 207 217 210 207 216 205 208 221 215 212 217 212 210 211 203 203 208 209 211 215 215 212 209 207 209 207 203 199 182 179 199 189 160 167 169 156 154 154 152 150 145 151 154 152 149 134 120 116 104 93 85
203 206 223 226 223 226 227 242 269 1 69 204 234 168 125 272 245 116 83 53 63 66 67 101 117 115 116 101 82 101 146 173 181 189 201 205 230 230 215 204 200 205 210 206 207 209 205 206 207 208 216 208 205 216 219 213 218 221 217 215 211 202 201 204 207 210 214 219 221 211 204 204 201 199 189 183 195 191 170 173 168 154 153 153 155 156 150 151 154 148 142 134 128 123 116 109 101